Dades meteomassalio
Diari Summary for Maig 16, 2017 Units:  English    Metric   Both
« Previous Day
Next Day »
Diari Semanal Mensual Anual Personalitzat
  Maxima: Minima: Mijana:
Temperatura: TemperatureC °F 11.4 °F 22.4 °F
Rosada: DewpointC °F 6.2 °F 8.6 °F
Humitat: Humidity % 21 % 44 %
Velocitat del vent: WindSpeedKMH mph 0.0 mph 6.8 mph
Racha vent: WindSpeedGustKMH mph - -
Vent:- - ESE
Pressio: PressurehPa in 1020.9 in -
Pluja: 0.0 in    
Historical Graphs
 
 
Tabular Data for Maig 16, 2017
Time Temperature Dew Point Pressure Wind Wind Speed Wind Gust Humidity Rainfall Rate (Hourly) solar Conditions
TemperatureC °F DewpointC °F PressurehPa in Calm     Humidity % HourlyPrecipMM in SolarRadiationWatts/m^2 W/m2 Conditions
00:04 20.7 °F 8.9 °F 1025.3 in Calm     47 % 0.0 in 0.0 W/m2 CLR
00:09 20.6 °F 8.8 °F 1025.3 in Calm     47 % 0.0 in 0.0 W/m2 CLR
00:14 20.5 °F 8.8 °F 1025.3 in Calm     47 % 0.0 in 0.0 W/m2 CLR
00:19 20.4 °F 8.7 °F 1024.9 in Calm     47 % 0.0 in 0.0 W/m2 CLR
00:24 20.2 °F 8.8 °F 1024.9 in Calm     48 % 0.0 in 0.0 W/m2 CLR
00:29 20.1 °F 8.8 °F 1024.9 in Calm     48 % 0.0 in 0.0 W/m2 CLR
00:34 19.9 °F 8.8 °F 1024.9 in Calm     49 % 0.0 in 0.0 W/m2 CLR
00:39 19.8 °F 8.8 °F 1024.9 in Calm     49 % 0.0 in 0.0 W/m2 CLR
00:44 19.6 °F 8.6 °F 1024.9 in Calm     49 % 0.0 in 0.0 W/m2 CLR
00:49 19.5 °F 9.1 °F 1024.9 in Calm     51 % 0.0 in 0.0 W/m2 CLR
00:50 19.4 °F 9.1 °F 1025.3 in Calm     51 % 0.0 in 0.0 W/m2 CLR
00:55 19.3 °F 9.2 °F 1025.3 in Calm     52 % 0.0 in 0.0 W/m2 CLR
01:00 19.0 °F 8.9 °F 1025.3 in Calm     52 % 0.0 in 0.0 W/m2 CLR
01:05 18.7 °F 8.7 °F 1025.3 in Calm     52 % 0.0 in 0.0 W/m2 CLR
01:10 18.6 °F 8.5 °F 1024.9 in Calm     52 % 0.0 in 0.0 W/m2 CLR
01:15 18.5 °F 8.7 °F 1024.9 in Calm     53 % 0.0 in 0.0 W/m2 CLR
01:20 18.3 °F 8.6 °F 1025.3 in Calm     53 % 0.0 in 0.0 W/m2 CLR
01:25 18.2 °F 9.0 °F 1025.3 in Calm     55 % 0.0 in 0.0 W/m2 CLR
01:30 18.1 °F 8.9 °F 1025.3 in ENE 3.7 mph 3.7 mph 55 % 0.0 in 0.0 W/m2 CLR
01:35 18.0 °F 8.6 °F 1025.3 in East 5.6 mph 5.6 mph 54 % 0.0 in 0.0 W/m2 CLR
01:40 18.0 °F 8.6 °F 1025.3 in Calm     54 % 0.0 in 0.0 W/m2 CLR
01:45 18.1 °F 8.3 °F 1025.3 in Calm     53 % 0.0 in 0.0 W/m2 CLR
01:50 18.2 °F 8.4 °F 1025.3 in Calm     53 % 0.0 in 0.0 W/m2 CLR
01:55 18.0 °F 8.3 °F 1025.3 in Calm     53 % 0.0 in 0.0 W/m2 CLR
02:00 17.9 °F 8.2 °F 1025.3 in Calm     53 % 0.0 in 0.0 W/m2 CLR
02:05 17.8 °F 8.7 °F 1025.3 in Calm     55 % 0.0 in 0.0 W/m2 CLR
02:10 17.6 °F 8.2 °F 1025.3 in Calm     54 % 0.0 in 0.0 W/m2 CLR
02:15 17.4 °F 8.1 °F 1025.3 in Calm     54 % 0.0 in 0.0 W/m2 CLR
02:20 17.4 °F 8.3 °F 1025.3 in Calm     55 % 0.0 in 0.0 W/m2 CLR
02:25 17.3 °F 8.2 °F 1025.3 in Calm     55 % 0.0 in 0.0 W/m2 CLR
02:30 17.2 °F 8.6 °F 1025.3 in Calm     57 % 0.0 in 0.0 W/m2 CLR
02:35 17.0 °F 8.9 °F 1025.3 in Calm     59 % 0.0 in 0.0 W/m2 CLR
02:40 16.8 °F 8.9 °F 1025.3 in Calm     60 % 0.0 in 0.0 W/m2 CLR
02:45 16.6 °F 8.8 °F 1025.3 in Calm     60 % 0.0 in 0.0 W/m2 CLR
02:50 16.4 °F 8.3 °F 1025.3 in Calm     59 % 0.0 in 0.0 W/m2 CLR
02:55 16.2 °F 8.6 °F 1025.3 in Calm     61 % 0.0 in 0.0 W/m2 CLR
03:00 15.9 °F 8.7 °F 1025.3 in Calm     62 % 0.0 in 0.0 W/m2 CLR
03:05 15.8 °F 8.7 °F 1025.3 in Calm     63 % 0.0 in 0.0 W/m2 CLR
03:10 15.6 °F 8.8 °F 1025.3 in Calm     64 % 0.0 in 0.0 W/m2 CLR
03:15 15.4 °F 8.6 °F 1025.3 in Calm     64 % 0.0 in 0.0 W/m2 CLR
03:20 15.2 °F 8.7 °F 1024.9 in Calm     65 % 0.0 in 0.0 W/m2 CLR
03:25 15.0 °F 8.7 °F 1024.9 in Calm     66 % 0.0 in 0.0 W/m2 CLR
03:30 14.8 °F 8.6 °F 1024.9 in Calm     66 % 0.0 in 0.0 W/m2 CLR
03:35 14.7 °F 8.4 °F 1024.9 in Calm     66 % 0.0 in 0.0 W/m2 CLR
03:40 14.6 °F 8.6 °F 1024.9 in Calm     67 % 0.0 in 0.0 W/m2 CLR
03:45 14.4 °F 8.4 °F 1024.9 in Calm     67 % 0.0 in 0.0 W/m2 CLR
03:50 14.3 °F 8.5 °F 1024.9 in Calm     68 % 0.0 in 0.0 W/m2 CLR
03:55 14.1 °F 8.1 °F 1024.9 in Calm     67 % 0.0 in 0.0 W/m2 CLR
04:01 14.1 °F 8.2 °F 1024.9 in Calm     68 % 0.0 in 0.0 W/m2 CLR
04:06 14.0 °F 8.2 °F 1024.9 in Calm     68 % 0.0 in 0.0 W/m2 CLR
04:11 13.8 °F 8.0 °F 1024.9 in Calm     68 % 0.0 in 0.0 W/m2 CLR
04:16 13.6 °F 8.0 °F 1024.9 in Calm     69 % 0.0 in 0.0 W/m2 CLR
04:21 13.5 °F 8.1 °F 1024.9 in Calm     70 % 0.0 in 0.0 W/m2 CLR
04:26 13.4 °F 8.2 °F 1024.9 in Calm     71 % 0.0 in 0.0 W/m2 CLR
04:31 13.3 °F 8.1 °F 1024.9 in Calm     71 % 0.0 in 0.0 W/m2 CLR
04:36 13.2 °F 7.9 °F 1024.9 in Calm     70 % 0.0 in 0.0 W/m2 CLR
04:41 13.2 °F 7.9 °F 1024.9 in Calm     70 % 0.0 in 0.0 W/m2 CLR
04:46 13.2 °F 7.9 °F 1024.9 in Calm     70 % 0.0 in 0.0 W/m2 CLR
04:51 13.3 °F 7.7 °F 1024.9 in Calm     69 % 0.0 in 0.0 W/m2 CLR
04:56 13.2 °F 7.7 °F 1024.9 in Calm     69 % 0.0 in 0.0 W/m2 CLR
05:01 13.2 °F 7.9 °F 1024.9 in Calm     70 % 0.0 in 0.0 W/m2 CLR
05:06 13.2 °F 7.8 °F 1024.9 in Calm     70 % 0.0 in 0.0 W/m2 CLR
05:11 13.1 °F 7.7 °F 1024.9 in Calm     70 % 0.0 in 0.0 W/m2 CLR
05:16 13.0 °F 7.9 °F 1024.9 in Calm     71 % 0.0 in 0.0 W/m2 CLR
05:21 12.9 °F 7.8 °F 1024.9 in Calm     71 % 0.0 in 0.0 W/m2 CLR
05:26 12.7 °F 7.8 °F 1024.9 in Calm     72 % 0.0 in 0.0 W/m2 CLR
05:31 12.6 °F 7.7 °F 1024.9 in Calm     72 % 0.0 in 0.0 W/m2 CLR
05:36 12.6 °F 7.7 °F 1024.9 in Calm     72 % 0.0 in 0.0 W/m2 CLR
05:41 12.4 °F 7.6 °F 1024.9 in Calm     72 % 0.0 in 0.0 W/m2 CLR
05:46 12.4 °F 7.5 °F 1024.9 in Calm     72 % 0.0 in 0.0 W/m2 CLR
05:51 12.3 °F 7.4 °F 1024.9 in Calm     72 % 0.0 in 0.0 W/m2 CLR
05:56 12.3 °F 7.4 °F 1024.9 in Calm     72 % 0.0 in 0.0 W/m2 CLR
06:01 12.4 °F 7.5 °F 1024.9 in Calm     72 % 0.0 in 0.0 W/m2 CLR
06:06 12.3 °F 7.4 °F 1024.9 in Calm     72 % 0.0 in 0.0 W/m2 CLR
06:11 12.2 °F 7.3 °F 1024.9 in Calm     72 % 0.0 in 0.0 W/m2 CLR
06:16 12.0 °F 7.3 °F 1024.9 in Calm     73 % 0.0 in 0.0 W/m2 CLR
06:21 11.8 °F 7.3 °F 1024.9 in Calm     74 % 0.0 in 0.0 W/m2 CLR
06:26 11.8 °F 7.3 °F 1024.9 in Calm     74 % 0.0 in 0.0 W/m2 CLR
06:31 11.7 °F 7.2 °F 1024.9 in Calm     74 % 0.0 in 0.0 W/m2 OVC
06:36 11.6 °F 7.3 °F 1024.9 in Calm     75 % 0.0 in 0.0 W/m2 OVC
06:41 11.5 °F 7.2 °F 1025.3 in Calm     75 % 0.0 in 0.0 W/m2 OVC
06:46 11.4 °F 6.9 °F 1025.3 in Calm     74 % 0.0 in 5.0 W/m2 OVC
06:51 11.4 °F 7.1 °F 1025.3 in Calm     75 % 0.0 in 7.0 W/m2 BKN
06:56 11.4 °F 6.9 °F 1025.3 in Calm     74 % 0.0 in 11.0 W/m2 BKN
07:02 11.4 °F 6.9 °F 1025.3 in Calm     74 % 0.0 in 12.0 W/m2 BKN
07:06 11.4 °F 6.9 °F 1025.3 in Calm     74 % 0.0 in 16.0 W/m2 BKN
07:11 11.4 °F 6.9 °F 1025.3 in Calm     74 % 0.0 in 19.0 W/m2 BKN
07:16 11.6 °F 7.1 °F 1025.3 in Calm     74 % 0.0 in 26.0 W/m2 BKN
07:17 11.6 °F 7.1 °F 1025.3 in Calm     74 % 0.0 in 28.0 W/m2 BKN
07:22 11.8 °F 7.3 °F 1025.3 in Calm     74 % 0.0 in 32.0 W/m2 BKN
07:27 11.9 °F 7.3 °F 1025.3 in SW 1.9 mph   73 % 0.0 in 49.0 W/m2 SCT
07:32 12.1 °F 7.2 °F 1025.3 in Calm     72 % 0.0 in 62.0 W/m2 SCT
07:37 12.4 °F 7.5 °F 1025.3 in Calm     72 % 0.0 in 74.0 W/m2 FEW
07:42 12.6 °F 7.4 °F 1025.6 in Calm     71 % 0.0 in 91.0 W/m2 FEW
07:47 12.9 °F 7.6 °F 1025.6 in Calm     70 % 0.0 in 107.0 W/m2 CLR
07:52 13.1 °F 7.8 °F 1025.6 in Calm     70 % 0.0 in 123.0 W/m2 CLR
07:57 13.6 °F 8.0 °F 1025.6 in Calm     69 % 0.0 in 134.0 W/m2 CLR
08:02 13.8 °F 7.8 °F 1025.6 in Calm     67 % 0.0 in 137.0 W/m2 CLR
08:07 14.2 °F 8.1 °F 1025.6 in Calm     67 % 0.0 in 178.0 W/m2 CLR
08:12 14.7 °F 8.2 °F 1025.6 in Calm     65 % 0.0 in 195.0 W/m2 CLR
08:17 15.2 °F 8.4 °F 1025.3 in Calm     64 % 0.0 in 214.0 W/m2 CLR
08:22 15.7 °F 8.4 °F 1025.6 in Calm     62 % 0.0 in 239.0 W/m2 CLR
08:27 16.2 °F 8.6 °F 1025.3 in Calm     61 % 0.0 in 255.0 W/m2 CLR
08:32 16.6 °F 8.6 °F 1025.3 in Calm     59 % 0.0 in 278.0 W/m2 CLR
08:37 17.1 °F 8.7 °F 1025.6 in Calm     58 % 0.0 in 295.0 W/m2 CLR
08:42 17.5 °F 8.9 °F 1025.6 in Calm     57 % 0.0 in 308.0 W/m2 CLR
08:47 17.8 °F 8.9 °F 1025.6 in Calm     56 % 0.0 in 325.0 W/m2 CLR
08:52 18.2 °F 8.8 °F 1025.6 in Calm     54 % 0.0 in 339.0 W/m2 CLR
08:57 18.6 °F 9.9 °F 1025.6 in Calm     57 % 0.0 in 371.0 W/m2 CLR
09:02 18.9 °F 9.7 °F 1025.3 in Calm     55 % 0.0 in 387.0 W/m2 CLR
09:07 19.6 °F 10.0 °F 1025.3 in Calm     54 % 0.0 in 396.0 W/m2 CLR
09:12 20.1 °F 9.9 °F 1025.6 in Calm     52 % 0.0 in 406.0 W/m2 CLR
09:17 20.6 °F 9.8 °F 1025.6 in Calm     50 % 0.0 in 420.0 W/m2 CLR
09:22 21.0 °F 9.6 °F 1025.3 in Calm     48 % 0.0 in 425.0 W/m2 CLR
09:27 21.3 °F 10.2 °F 1025.3 in Calm     49 % 0.0 in 439.0 W/m2 CLR
09:33 21.8 °F 10.0 °F 1025.3 in Calm     47 % 0.0 in 459.0 W/m2 CLR
09:38 22.3 °F 9.2 °F 1025.3 in Calm     43 % 0.0 in 446.0 W/m2 CLR
09:43 22.8 °F 8.4 °F 1025.3 in Calm     40 % 0.0 in 345.0 W/m2 CLR
09:48 23.3 °F 8.2 °F 1025.3 in Calm     38 % 0.0 in 83.0 W/m2 CLR
09:52 23.6 °F 8.4 °F 1025.3 in Calm     38 % 0.0 in 512.0 W/m2 CLR
09:57 23.8 °F 8.2 °F 1025.3 in Calm     37 % 0.0 in 485.0 W/m2 CLR
10:03 24.0 °F 7.6 °F 1025.3 in Calm     35 % 0.0 in 555.0 W/m2 CLR
10:08 24.1 °F 7.3 °F 1025.3 in Calm     34 % 0.0 in 568.0 W/m2 CLR
10:13 24.3 °F 7.4 °F 1025.3 in Calm     34 % 0.0 in 592.0 W/m2 CLR
10:18 24.8 °F 7.4 °F 1025.3 in Calm     33 % 0.0 in 610.0 W/m2 CLR
10:23 25.1 °F 7.2 °F 1025.3 in Calm     32 % 0.0 in 622.0 W/m2 CLR
10:28 25.3 °F 7.0 °F 1024.9 in ENE 1.9 mph 1.9 mph 31 % 0.0 in 719.0 W/m2 CLR
10:33 25.6 °F 7.6 °F 1024.9 in Calm     32 % 0.0 in 715.0 W/m2 CLR
10:38 25.7 °F 7.3 °F 1024.9 in Calm   0.2 mph 31 % 0.0 in 724.0 W/m2 CLR
10:39 25.7 °F 7.3 °F 1024.9 in ENE 1.9 mph 1.9 mph 31 % 0.0 in 717.0 W/m2 CLR
10:44 26.0 °F 7.6 °F 1024.9 in ENE 5.6 mph 5.6 mph 31 % 0.0 in 740.0 W/m2 CLR
10:49 26.1 °F 7.7 °F 1024.9 in East 5.6 mph 5.6 mph 31 % 0.0 in 749.0 W/m2 CLR
10:54 26.3 °F 7.4 °F 1024.9 in NE 3.7 mph 3.7 mph 30 % 0.0 in 789.0 W/m2 CLR
10:59 26.7 °F 8.6 °F 1024.9 in ENE 9.3 mph 9.3 mph 32 % 0.0 in 721.0 W/m2 CLR
11:04 26.8 °F 8.2 °F 1024.9 in NE 7.4 mph 7.4 mph 31 % 0.0 in 837.0 W/m2 CLR
11:09 26.7 °F 9.6 °F 1024.9 in ENE 11.1 mph 11.1 mph 34 % 0.0 in 585.0 W/m2 CLR
11:14 26.6 °F 11.1 °F 1024.6 in ENE 11.1 mph 11.1 mph 38 % 0.0 in 424.0 W/m2 CLR
11:19 26.2 °F 11.9 °F 1024.6 in NNE 11.1 mph 11.1 mph 41 % 0.0 in 420.0 W/m2 CLR
11:24 26.3 °F 12.0 °F 1024.6 in NE 9.3 mph 9.3 mph 41 % 0.0 in 888.0 W/m2 CLR
11:29 26.6 °F 11.5 °F 1024.6 in NE 13.0 mph 13.0 mph 39 % 0.0 in 863.0 W/m2 CLR
11:34 27.0 °F 12.2 °F 1024.6 in ENE 9.7 mph 9.7 mph 40 % 0.0 in 896.0 W/m2 CLR
11:39 27.4 °F 11.4 °F 1024.6 in ENE 5.6 mph 5.6 mph 37 % 0.0 in 816.0 W/m2 CLR
11:44 27.5 °F 11.1 °F 1024.6 in ENE 9.3 mph   36 % 0.0 in 715.0 W/m2 CLR
11:49 27.7 °F 9.9 °F 1024.6 in SE 6.4 mph 6.4 mph 33 % 0.0 in 830.0 W/m2 CLR
11:54 27.7 °F 10.4 °F 1024.3 in NNE 3.7 mph 3.7 mph 34 % 0.0 in 606.0 W/m2 CLR
11:59 27.8 °F 10.9 °F 1024.3 in Calm     35 % 0.0 in 798.0 W/m2 CLR
12:04 28.0 °F 10.7 °F 1024.3 in NW 9.7 mph 9.7 mph 34 % 0.0 in 838.0 W/m2 CLR
12:09 27.9 °F 10.6 °F 1024.3 in Calm     34 % 0.0 in 842.0 W/m2 CLR
12:14 28.2 °F 10.4 °F 1024.3 in Calm     33 % 0.0 in 849.0 W/m2 CLR
12:19 28.3 °F 10.5 °F 1023.9 in North 11.1 mph 11.1 mph 33 % 0.0 in 856.0 W/m2 CLR
12:24 28.4 °F 10.6 °F 1023.9 in NNW 5.6 mph 5.6 mph 33 % 0.0 in 861.0 W/m2 CLR
12:29 28.3 °F 10.4 °F 1023.9 in Calm     33 % 0.0 in 868.0 W/m2 CLR
12:34 28.6 °F 10.3 °F 1023.9 in ESE 1.9 mph 1.9 mph 32 % 0.0 in 875.0 W/m2 CLR
12:39 28.7 °F 8.3 °F 1023.9 in ESE 13.0 mph 13.0 mph 28 % 0.0 in 882.0 W/m2 CLR
12:44 28.7 °F 8.9 °F 1023.9 in SE 14.8 mph 14.8 mph 29 % 0.0 in 891.0 W/m2 CLR
12:49 28.7 °F 8.9 °F 1023.9 in SE 3.7 mph   29 % 0.0 in 895.0 W/m2 CLR
12:54 28.9 °F 9.1 °F 1023.9 in East 3.7 mph 3.7 mph 29 % 0.0 in 911.0 W/m2 CLR
12:59 28.9 °F 9.1 °F 1023.6 in Calm     29 % 0.0 in 921.0 W/m2 CLR
13:04 29.3 °F 9.4 °F 1023.6 in Calm     29 % 0.0 in 919.0 W/m2 CLR
13:09 29.8 °F 9.3 °F 1023.6 in SE 8.0 mph 8.0 mph 28 % 0.0 in 923.0 W/m2 CLR
13:14 29.7 °F 8.1 °F 1023.2 in East 3.7 mph 3.7 mph 26 % 0.0 in 921.0 W/m2 CLR
13:19 29.8 °F 8.8 °F 1023.2 in East 7.4 mph 7.4 mph 27 % 0.0 in 921.0 W/m2 CLR
13:24 29.9 °F 8.3 °F 1023.2 in SE 16.7 mph 16.7 mph 26 % 0.0 in 925.0 W/m2 CLR
13:29 29.8 °F 7.7 °F 1023.2 in East 11.1 mph 11.1 mph 25 % 0.0 in 928.0 W/m2 CLR
13:34 29.6 °F 8.0 °F 1022.9 in NE 5.6 mph 5.6 mph 26 % 0.0 in 928.0 W/m2 CLR
13:39 29.7 °F 8.2 °F 1022.9 in SE 6.4 mph 6.4 mph 26 % 0.0 in 926.0 W/m2 CLR
13:44 29.9 °F 8.3 °F 1022.9 in SE 5.6 mph   26 % 0.0 in 935.0 W/m2 CLR
13:49 30.0 °F 7.8 °F 1022.9 in Calm     25 % 0.0 in 935.0 W/m2 CLR
13:54 30.1 °F 8.5 °F 1022.9 in East 11.3 mph 11.3 mph 26 % 0.0 in 911.0 W/m2 CLR
13:59 30.1 °F 7.3 °F 1022.9 in ESE 11.3 mph 11.3 mph 24 % 0.0 in 921.0 W/m2 CLR
14:04 30.1 °F 7.3 °F 1022.6 in ESE 11.3 mph 11.3 mph 24 % 0.0 in 926.0 W/m2 CLR
14:09 29.9 °F 8.3 °F 1022.9 in North 14.8 mph 14.8 mph 26 % 0.0 in 919.0 W/m2 CLR
14:15 30.2 °F 9.2 °F 1022.6 in ENE 5.6 mph 5.6 mph 27 % 0.0 in 928.0 W/m2 CLR
14:20 30.7 °F 7.8 °F 1022.6 in Calm   0.5 mph 24 % 0.0 in 928.0 W/m2 CLR
14:25 30.8 °F 7.9 °F 1022.6 in Calm   0.2 mph 24 % 0.0 in 932.0 W/m2 CLR
14:30 31.3 °F 7.1 °F 1022.2 in ESE 6.4 mph 6.4 mph 22 % 0.0 in 933.0 W/m2 CLR
14:35 31.3 °F 6.4 °F 1022.2 in ESE 8.0 mph 8.0 mph 21 % 0.0 in 928.0 W/m2 CLR
14:40 31.2 °F 6.2 °F 1022.2 in ENE 11.3 mph 11.3 mph 21 % 0.0 in 872.0 W/m2 CLR
14:45 30.9 °F 9.7 °F 1022.2 in East 11.1 mph 11.1 mph 27 % 0.0 in 893.0 W/m2 CLR
14:50 30.5 °F 10.9 °F 1022.2 in East 19.3 mph 19.3 mph 30 % 0.0 in 875.0 W/m2 CLR
14:55 30.0 °F 11.5 °F 1021.9 in ENE 29.0 mph 29.0 mph 32 % 0.0 in 821.0 W/m2 CLR
15:00 29.9 °F 11.9 °F 1021.9 in ENE 14.8 mph 14.8 mph 33 % 0.0 in 886.0 W/m2 CLR
15:05 29.8 °F 11.8 °F 1021.9 in ENE 31.5 mph 31.5 mph 33 % 0.0 in 867.0 W/m2 CLR
15:10 29.6 °F 12.1 °F 1021.9 in East 24.1 mph 24.1 mph 34 % 0.0 in 875.0 W/m2 CLR
15:15 29.9 °F 11.9 °F 1021.9 in East 18.5 mph 18.5 mph 33 % 0.0 in 853.0 W/m2 CLR
15:20 29.8 °F 11.3 °F 1021.9 in East 24.1 mph 24.1 mph 32 % 0.0 in 851.0 W/m2 CLR
15:25 29.6 °F 11.6 °F 1021.9 in ESE 27.8 mph 27.8 mph 33 % 0.0 in 858.0 W/m2 CLR
15:30 29.5 °F 11.6 °F 1021.6 in ESE 24.1 mph 24.1 mph 33 % 0.0 in 844.0 W/m2 CLR
15:35 29.6 °F 11.1 °F 1021.9 in ESE 31.5 mph 31.5 mph 32 % 0.0 in 872.0 W/m2 CLR
15:40 29.6 °F 10.6 °F 1021.6 in ESE 25.9 mph 25.9 mph 31 % 0.0 in 851.0 W/m2 CLR
15:45 29.5 °F 11.1 °F 1021.6 in ESE 29.6 mph 29.6 mph 32 % 0.0 in 793.0 W/m2 CLR
15:50 29.4 °F 10.6 °F 1021.6 in East 16.7 mph 16.7 mph 31 % 0.0 in 756.0 W/m2 CLR
15:55 29.6 °F 10.7 °F 1021.6 in ESE 22.2 mph 22.2 mph 31 % 0.0 in 747.0 W/m2 CLR
16:00 29.6 °F 10.2 °F 1021.6 in East 18.5 mph 18.5 mph 30 % 0.0 in 765.0 W/m2 CLR
16:05 29.9 °F 10.4 °F 1021.6 in ESE 27.8 mph 27.8 mph 30 % 0.0 in 745.0 W/m2 CLR
16:10 29.7 °F 9.7 °F 1021.6 in East 18.5 mph 18.5 mph 29 % 0.0 in 791.0 W/m2 CLR
16:15 29.7 °F 9.8 °F 1021.6 in East 18.5 mph 18.5 mph 29 % 0.0 in 779.0 W/m2 CLR
16:20 29.8 °F 9.8 °F 1021.6 in SE 14.8 mph 14.8 mph 29 % 0.0 in 795.0 W/m2 CLR
16:25 29.6 °F 9.7 °F 1021.2 in East 22.2 mph 22.2 mph 29 % 0.0 in 784.0 W/m2 CLR
16:30 29.7 °F 9.8 °F 1021.2 in ESE 24.1 mph 24.1 mph 29 % 0.0 in 770.0 W/m2 CLR
16:35 29.6 °F 9.1 °F 1021.2 in East 24.1 mph 24.1 mph 28 % 0.0 in 761.0 W/m2 CLR
16:40 29.3 °F 9.4 °F 1021.2 in East 17.7 mph 17.7 mph 29 % 0.0 in 664.0 W/m2 CLR
16:45 29.3 °F 9.4 °F 1021.2 in SE 22.2 mph 22.2 mph 29 % 0.0 in 717.0 W/m2 CLR
16:50 29.6 °F 9.1 °F 1021.2 in ESE 18.5 mph 18.5 mph 28 % 0.0 in 708.0 W/m2 CLR
16:55 29.6 °F 9.1 °F 1021.2 in SE 27.8 mph 27.8 mph 28 % 0.0 in 708.0 W/m2 CLR
17:00 29.6 °F 9.7 °F 1021.2 in SE 18.5 mph 18.5 mph 29 % 0.0 in 708.0 W/m2 CLR
17:05 29.7 °F 9.2 °F 1021.2 in ESE 20.4 mph 20.4 mph 28 % 0.0 in 526.0 W/m2 CLR
17:10 29.4 °F 9.5 °F 1021.2 in ESE 27.4 mph 27.4 mph 29 % 0.0 in 513.0 W/m2 CLR
17:15 29.2 °F 9.3 °F 1021.2 in SE 13.0 mph 13.0 mph 29 % 0.0 in 592.0 W/m2 CLR
17:20 29.2 °F 9.3 °F 1021.2 in ESE 22.2 mph 22.2 mph 29 % 0.0 in 613.0 W/m2 CLR
17:25 29.2 °F 9.8 °F 1021.2 in ESE 22.5 mph 22.5 mph 30 % 0.0 in 429.0 W/m2 CLR
17:30 29.2 °F 9.8 °F 1021.2 in SE 17.7 mph 17.7 mph 30 % 0.0 in 445.0 W/m2 CLR
17:35 28.9 °F 9.6 °F 1021.2 in East 16.7 mph 16.7 mph 30 % 0.0 in 464.0 W/m2 CLR
17:40 28.9 °F 9.1 °F 1021.2 in SE 20.4 mph 20.4 mph 29 % 0.0 in 510.0 W/m2 CLR
17:45 28.7 °F 8.9 °F 1021.2 in SE 18.5 mph 18.5 mph 29 % 0.0 in 480.0 W/m2 CLR
17:50 28.9 °F 9.1 °F 1021.2 in SSE 20.4 mph 20.4 mph 29 % 0.0 in 522.0 W/m2 CLR
17:55 28.9 °F 9.1 °F 1021.2 in East 27.4 mph 27.4 mph 29 % 0.0 in 645.0 W/m2 CLR
18:00 29.0 °F 8.7 °F 1020.9 in SE 20.4 mph 20.4 mph 28 % 0.0 in 557.0 W/m2 CLR
18:05 28.9 °F 8.6 °F 1020.9 in ESE 25.9 mph 25.9 mph 28 % 0.0 in 541.0 W/m2 CLR
18:10 28.8 °F 8.5 °F 1021.2 in SE 24.1 mph 24.1 mph 28 % 0.0 in 490.0 W/m2 CLR
18:15 28.8 °F 8.4 °F 1021.2 in SE 27.8 mph 27.8 mph 28 % 0.0 in 506.0 W/m2 CLR
18:20 28.8 °F 8.9 °F 1021.2 in East 18.5 mph 18.5 mph 29 % 0.0 in 401.0 W/m2 CLR
18:25 28.7 °F 8.9 °F 1021.2 in ESE 16.7 mph 16.7 mph 29 % 0.0 in 348.0 W/m2 CLR
18:30 28.3 °F 8.6 °F 1021.2 in ESE 16.7 mph 16.7 mph 29 % 0.0 in 294.0 W/m2 CLR
18:35 28.1 °F 8.9 °F 1021.2 in ESE 31.5 mph 31.5 mph 30 % 0.0 in 329.0 W/m2 CLR
18:40 28.1 °F 8.8 °F 1021.2 in ESE 18.5 mph 18.5 mph 30 % 0.0 in 397.0 W/m2 CLR
18:45 28.2 °F 9.0 °F 1021.2 in ESE 24.1 mph 24.1 mph 30 % 0.0 in 450.0 W/m2 CLR
18:50 28.3 °F 9.1 °F 1021.2 in SE 27.4 mph 27.4 mph 30 % 0.0 in 434.0 W/m2 CLR
18:55 28.2 °F 9.0 °F 1021.2 in SE 16.7 mph 16.7 mph 30 % 0.0 in 392.0 W/m2 CLR
19:00 28.1 °F 9.4 °F 1021.2 in SE 18.5 mph 18.5 mph 31 % 0.0 in 301.0 W/m2 CLR
19:05 27.9 °F 9.2 °F 1020.9 in ESE 18.5 mph 18.5 mph 31 % 0.0 in 202.0 W/m2 CLR
19:10 27.8 °F 9.2 °F 1020.9 in SE 22.2 mph 22.2 mph 31 % 0.0 in 149.0 W/m2 CLR
19:15 27.7 °F 9.1 °F 1020.9 in ESE 9.7 mph 9.7 mph 31 % 0.0 in 144.0 W/m2 CLR
19:20 27.6 °F 8.9 °F 1020.9 in ESE 16.1 mph 16.1 mph 31 % 0.0 in 120.0 W/m2 CLR
19:25 27.4 °F 9.2 °F 1020.9 in ESE 16.7 mph 16.7 mph 32 % 0.0 in 118.0 W/m2 CLR
19:27 27.3 °F 9.2 °F 1020.9 in SE 14.8 mph 14.8 mph 32 % 0.0 in 120.0 W/m2 CLR
19:30 27.2 °F 9.1 °F 1020.9 in ESE 16.1 mph 16.1 mph 32 % 0.0 in 127.0 W/m2 CLR
19:35 27.1 °F 9.4 °F 1020.9 in SE 14.8 mph 14.8 mph 33 % 0.0 in 155.0 W/m2 CLR
19:40 27.1 °F 9.4 °F 1020.9 in SE 16.7 mph 16.7 mph 33 % 0.0 in 186.0 W/m2 CLR
19:45 27.0 °F 9.3 °F 1020.9 in SSE 11.1 mph 11.1 mph 33 % 0.0 in 169.0 W/m2 CLR
19:50 27.1 °F 9.4 °F 1021.2 in SE 9.3 mph 9.3 mph 33 % 0.0 in 174.0 W/m2 CLR
19:55 27.0 °F 8.9 °F 1020.9 in SE 18.5 mph 18.5 mph 32 % 0.0 in 144.0 W/m2 CLR
20:00 26.9 °F 8.8 °F 1021.2 in South 18.5 mph 18.5 mph 32 % 0.0 in 111.0 W/m2 CLR
20:05 26.7 °F 8.6 °F 1021.2 in SSE 18.5 mph 18.5 mph 32 % 0.0 in 88.0 W/m2 CLR
20:10 26.6 °F 8.6 °F 1021.2 in SE 16.7 mph 16.7 mph 32 % 0.0 in 72.0 W/m2 CLR
20:15 26.4 °F 8.4 °F 1021.2 in SE 16.7 mph 16.7 mph 32 % 0.0 in 69.0 W/m2 FEW
20:21 26.3 °F 8.7 °F 1021.2 in SSE 14.8 mph 14.8 mph 33 % 0.0 in 56.0 W/m2 SCT
20:26 26.2 °F 9.1 °F 1021.2 in SSE 9.7 mph 9.7 mph 34 % 0.0 in 58.0 W/m2 SCT
20:31 26.0 °F 8.9 °F 1021.2 in SE 14.8 mph 14.8 mph 34 % 0.0 in 47.0 W/m2 SCT
20:37 25.8 °F 8.8 °F 1021.2 in SSE 11.1 mph 11.1 mph 34 % 0.0 in 39.0 W/m2 BKN
20:42 25.7 °F 9.1 °F 1021.2 in SSE 13.0 mph 13.0 mph 35 % 0.0 in 33.0 W/m2 BKN
20:47 25.5 °F 8.9 °F 1021.6 in SE 13.0 mph 13.0 mph 35 % 0.0 in 26.0 W/m2 BKN
20:52 25.4 °F 8.8 °F 1021.2 in SSE 11.1 mph 11.1 mph 35 % 0.0 in 19.0 W/m2 BKN
20:57 25.3 °F 9.1 °F 1021.2 in SSE 7.4 mph 7.4 mph 36 % 0.0 in 12.0 W/m2 BKN
21:02 25.2 °F 8.6 °F 1021.6 in SE 14.8 mph 14.8 mph 35 % 0.0 in 7.0 W/m2 BKN
21:07 25.1 °F 8.1 °F 1021.6 in South 11.1 mph 11.1 mph 34 % 0.0 in 5.0 W/m2 OVC
21:12 25.0 °F 8.1 °F 1021.6 in SSE 11.3 mph 11.3 mph 34 % 0.0 in 0.0 W/m2 OVC
21:17 24.9 °F 7.5 °F 1021.6 in SSE 13.0 mph 13.0 mph 33 % 0.0 in 0.0 W/m2 OVC
21:22 24.8 °F 7.4 °F 1021.6 in SSE 13.0 mph 13.0 mph 33 % 0.0 in 0.0 W/m2 OVC
21:27 24.6 °F 7.3 °F 1021.6 in SSE 9.3 mph 9.3 mph 33 % 0.0 in 0.0 W/m2 CLR
21:32 24.5 °F 7.6 °F 1021.6 in SSE 5.6 mph 5.6 mph 34 % 0.0 in 0.0 W/m2 CLR
21:37 24.4 °F 7.5 °F 1021.6 in SSE 13.0 mph 13.0 mph 34 % 0.0 in 0.0 W/m2 CLR
21:42 24.3 °F 7.4 °F 1021.6 in SSE 18.5 mph 18.5 mph 34 % 0.0 in 0.0 W/m2 CLR
21:47 24.3 °F 7.4 °F 1021.6 in SSE 13.0 mph 13.0 mph 34 % 0.0 in 0.0 W/m2 CLR
21:52 24.2 °F 7.3 °F 1021.9 in South 9.7 mph 9.7 mph 34 % 0.0 in 0.0 W/m2 CLR
21:57 24.1 °F 7.6 °F 1021.9 in SSE 5.6 mph 5.6 mph 35 % 0.0 in 0.0 W/m2 CLR
22:02 23.9 °F 7.6 °F 1021.9 in South 11.1 mph 11.1 mph 35 % 0.0 in 0.0 W/m2 CLR
22:07 23.8 °F 7.4 °F 1021.9 in SSE 7.4 mph 7.4 mph 35 % 0.0 in 0.0 W/m2 CLR
22:12 23.7 °F 7.8 °F 1021.9 in Calm     36 % 0.0 in 0.0 W/m2 CLR
22:17 23.6 °F 7.7 °F 1021.9 in Calm     36 % 0.0 in 0.0 W/m2 CLR
22:22 23.5 °F 7.6 °F 1021.9 in Calm     36 % 0.0 in 0.0 W/m2 CLR
22:27 23.3 °F 7.8 °F 1022.2 in Calm     37 % 0.0 in 0.0 W/m2 CLR
22:32 23.1 °F 7.6 °F 1021.9 in Calm     37 % 0.0 in 0.0 W/m2 CLR
22:37 23.0 °F 7.5 °F 1022.2 in Calm     37 % 0.0 in 0.0 W/m2 CLR
22:42 22.8 °F 7.8 °F 1022.2 in Calm     38 % 0.0 in 0.0 W/m2 CLR
22:47 22.7 °F 7.6 °F 1022.2 in Calm     38 % 0.0 in 0.0 W/m2 CLR
22:52 22.5 °F 7.8 °F 1022.2 in Calm     39 % 0.0 in 0.0 W/m2 CLR
22:57 22.3 °F 7.7 °F 1022.2 in Calm     39 % 0.0 in 0.0 W/m2 CLR
23:02 22.2 °F 7.9 °F 1022.2 in Calm     40 % 0.0 in 0.0 W/m2 CLR
23:07 22.1 °F 7.8 °F 1022.2 in Calm     40 % 0.0 in 0.0 W/m2 CLR
23:12 21.9 °F 7.7 °F 1022.6 in Calm     40 % 0.0 in 0.0 W/m2 CLR
23:17 21.8 °F 7.6 °F 1022.6 in Calm     40 % 0.0 in 0.0 W/m2 CLR
23:22 21.8 °F 7.6 °F 1022.6 in Calm     40 % 0.0 in 0.0 W/m2 CLR
23:27 21.6 °F 7.8 °F 1022.6 in Calm     41 % 0.0 in 0.0 W/m2 CLR
23:32 21.4 °F 7.6 °F 1022.6 in SSW 3.2 mph 3.2 mph 41 % 0.0 in 0.0 W/m2 CLR
23:37 21.3 °F 7.6 °F 1022.6 in Calm     41 % 0.0 in 0.0 W/m2 CLR
23:42 21.3 °F 7.6 °F 1022.2 in Calm     41 % 0.0 in 0.0 W/m2 CLR
23:47 21.3 °F 7.5 °F 1022.6 in Calm     41 % 0.0 in 0.0 W/m2 CLR
23:52 21.2 °F 7.4 °F 1022.6 in Calm     41 % 0.0 in 0.0 W/m2 CLR
23:57 21.2 °F 7.4 °F 1022.2 in Calm     41 % 0.0 in 0.0 W/m2 CLR
Lo Temps de Massalio
Compliments of Weather Underground - 1.25 mb